sat.trackr.live / text

‹ back to catalog

STARLINK-11255 [DTC]

NORAD 60730 · 2024-152L

PAYLOAD ACTIVE UNKNOWN

§ Identity

Operator
Country
US
Launch date
2024-08-28
Launch site
AFETR
Launch vehicle
Mass (kg)
RCS (m²)

Purposes: comms

External: N2YO · Heavens-Above · Gunter

§ Orbital elements

Epoch: 2026-09-21T07:33:22.773024Z

Period
91.74 min
Inclination
53.1607°
Eccentricity
0.0000304
Mean motion
15.69705997 rev/d
Perigee alt
359.5 km
Apogee alt
359.9 km
Semi-major
6,737.9 km
B*
4.6851e-6
RAAN
231.6408°
Arg perigee
111.3883°
Mean anomaly
248.7168°
Rev number
11,957

§ Raw data

STARLINK-11255 [DTC]1 60730U 24152L   26264.31484691 -.00000020  00000+0  46851-5 0  99972 60730  53.1607 231.6408 0000304 111.3883 248.7168 15.69705997119573

JSON: /api/v1/satellites/60730 · /tle

For live sub-satellite position, see the globe view (requires WebGL).

§ Visibility from observer

Set your observer location to see the next 7 days of passes ≥ 10°. The values pass through the URL so the page stays shareable.

No JS? Fill the form by hand. The geolocation button needs JavaScript.